Weather History for Homer, AK

Change the Weather History Date:

Wednesday, April 11, 2012

  Actual Average Record
Temperature  
Mean Temperature 31 °F -  
Max Temperature 41 °F 40 °F 57 °F (1997)
Min Temperature 23 °F 27 °F 7 °F (1985)
Degree Days  
Heating Degree Days 34    
Moisture  
Dew Point 25 °F    
Average Humidity 75    
Maximum Humidity 92    
Minimum Humidity 52    
Precipitation  
Precipitation 0.00 in - - ()
Sea Level Pressure  
Sea Level Pressure 29.83 in    
Wind  
Wind Speed 2 mph (SSW)    
Max Wind Speed 8 mph    
Max Gust Speed -    
Visibility 10 miles    
Events      
Averages and records for this station are not official NWS values.
T = Trace of Precipitation, MM = Missing Value Source: NWS Daily Summary

Daily Weather History Graph

Daily Weather History Graph

Search for Another Location

Airport:

Trip Planner

Search our weather history database for the weather conditions in past years. The results will help you decide how hot, cold, wet, or windy it might be!

Date:

Astronomy

Apr. 11, 2012 Rise Set
Actual Time 6:59 AM AKDT 9:15 PM AKDT
Civil Twilight 6:15 AM AKDT 10:00 PM AKDT
Nautical Twilight 5:17 AM AKDT 10:58 PM AKDT
Astronomical Twilight 4:02 AM AKDT 12:15 AM AKDT
Moon 3:23 AM AKDT (4/11) 9:56 AM AKDT (4/11)
Length of Visible Light 15h 44m
Length of Day
14h 15m
Waning Gibbous, 68% of the Moon is Illuminated
Apr 11
Waning Gibbous
Apr 13
Last Quarter
Apr 20
New
Apr 29
First Quarter
May 5
Full

Hourly Weather History & Observations

Time (AKDT) Temp. Windchill Dew Point Humidity Pressure Visibility Wind Dir Wind Speed Gust Speed Precip Events Conditions
12:53 AM 26.1 °F - 21.0 °F 81% 29.81 in 10.0 mi Calm Calm - N/A   Clear
1:53 AM 28.0 °F - 21.9 °F 78% 29.82 in 10.0 mi Calm Calm - N/A   Clear
2:53 AM 26.1 °F - 21.9 °F 84% 29.82 in 10.0 mi Calm Calm - N/A   Clear
3:53 AM 25.0 °F - 21.9 °F 88% 29.82 in 10.0 mi Calm Calm - N/A   Clear
4:53 AM 25.0 °F - 21.9 °F 88% 29.82 in 10.0 mi Calm Calm - N/A   Partly Cloudy
5:53 AM 24.1 °F - 21.9 °F 91% 29.82 in 10.0 mi Calm Calm - N/A   Clear
6:53 AM 23.0 °F - 21.0 °F 92% 29.82 in 10.0 mi Calm Calm - N/A   Partly Cloudy
7:53 AM 24.1 °F - 21.0 °F 88% 29.82 in 10.0 mi Calm Calm - N/A   Clear
8:53 AM 26.1 °F - 23.0 °F 88% 29.83 in 10.0 mi Calm Calm - N/A   Mostly Cloudy
9:53 AM 30.9 °F - 24.1 °F 76% 29.83 in 10.0 mi Calm Calm - N/A   Mostly Cloudy
10:53 AM 34.0 °F 29.8 °F 23.0 °F 64% 29.83 in 10.0 mi East 4.6 mph - N/A   Clear
11:53 AM 37.0 °F 32.4 °F 21.0 °F 52% 29.83 in 10.0 mi East 5.8 mph - N/A   Clear
12:00 PM 37.4 °F 32.8 °F 21.2 °F 52% 29.83 in 2.5 mi East 5.8 mph - N/A   Haze
12:14 PM 37.4 °F 34.9 °F 21.2 °F 52% 29.83 in 10.0 mi Variable 3.5 mph - N/A   Mostly Cloudy
12:53 PM 37.0 °F 32.4 °F 23.0 °F 57% 29.83 in 10.0 mi East 5.8 mph - N/A   Mostly Cloudy
1:53 PM 37.9 °F 34.4 °F 27.0 °F 65% 29.83 in 10.0 mi SW 4.6 mph - N/A   Scattered Clouds
2:53 PM 37.9 °F 33.5 °F 25.0 °F 60% 29.84 in 10.0 mi SW 5.8 mph - N/A   Mostly Cloudy
3:53 PM 39.0 °F 34.0 °F 26.1 °F 60% 29.84 in 10.0 mi SW 6.9 mph - N/A   Partly Cloudy
4:53 PM 37.0 °F 31.6 °F 28.9 °F 73% 29.84 in 10.0 mi SW 6.9 mph - N/A   Partly Cloudy
5:53 PM 37.9 °F 32.7 °F 30.9 °F 76% 29.84 in 10.0 mi SSW 6.9 mph - N/A   Clear
6:53 PM 37.9 °F 34.4 °F 32.0 °F 79% 29.84 in 10.0 mi SSW 4.6 mph - N/A   Partly Cloudy
7:53 PM 37.0 °F 33.3 °F 33.1 °F 86% 29.84 in 10.0 mi SW 4.6 mph - N/A   Clear
8:53 PM 36.0 °F 29.6 °F 30.0 °F 79% 29.85 in 10.0 mi WSW 8.1 mph - N/A   Scattered Clouds
9:53 PM 36.0 °F 32.1 °F 30.0 °F 79% 29.86 in 10.0 mi WSW 4.6 mph - N/A   Scattered Clouds
11:53 PM 35.1 °F - 30.0 °F 82% 29.87 in 10.0 mi Calm Calm - N/A   Overcast